[Iaude] MPEC G208: 2024 GA6 [a=1.53,e=0.34,i=9.4,H=27.2]
    mpec at cfa.harvard.edu 
    mpec at cfa.harvard.edu
       
    Sun Apr 14 19:11:38 EDT 2024
    
    
  
M.P.E.C. 2024-G208                               Issued 2024 April 14, 23:10 UT
     The Minor Planet Electronic Circulars contain information on unusual
         minor planets, routine data on comets and natural satellites,
         and occasional editorial announcements.  They are published
    on behalf of Division F of the International Astronomical Union by the
          Minor Planet Center, Smithsonian Astrophysical Observatory,
                          Cambridge, MA 02138, U.S.A.
			  
             Prepared using the Tamkin Foundation Computer Network
                              MPC at CFA.HARVARD.EDU
            URL https://www.minorplanetcenter.net/    ISSN 1523-6714
                                    2024 GA6                                    
Observations:
     K24G06A 1C2024 04 13.21652 11 06 28.20 +51 34 00.3          21.4 GVEG208G96
     K24G06A 1C2024 04 13.22177 11 06 27.98 +51 33 05.9          21.6 GVEG208G96
     K24G06A 1C2024 04 13.22701 11 06 27.73 +51 32 08.6          21.6 GVEG208G96
     K24G06A 1C2024 04 13.23225 11 06 27.42 +51 31 13.2          21.4 GVEG208G96
     K24G06A*1C2024 04 14.23729311 09 35.741+47 58 53.90         20.84GVEG208G96
     K24G06A 1C2024 04 14.24255411 09 35.539+47 57 33.19         20.55GVEG208G96
     K24G06A 1C2024 04 14.24783311 09 35.500+47 56 10.03         20.22GVEG208G96
     K24G06A 1C2024 04 14.25309911 09 35.359+47 54 46.94         20.42GVEG208G96
     K24G06A  C2024 04 14.27555811 09 33.183+47 48 28.64         20.3 GVEG208H01
     K24G06A  C2024 04 14.27999011 09 33.200+47 47 16.07         20.2 GVEG208H01
     K24G06A KC2024 04 14.28908 11 09 29.06 +47 43 38.9          20.6 RVEG208734
     K24G06A  C2024 04 14.28933011 09 33.282+47 44 42.58         20.4 GVEG208H01
     K24G06A KC2024 04 14.29661 11 09 29.66 +47 41 32.9          20.5 RVEG208734
     K24G06A  C2024 04 14.29788411 09 33.430+47 42 21.02         20.4 GVEG208H01
     K24G06A KC2024 04 14.30461 11 09 29.93 +47 39 17.5          20.9 RVEG208734
     K24G06A KC2024 04 14.35644011 09 37.195+47 26 05.96         20.59GVEG208I52
     K24G06A KC2024 04 14.35733611 09 37.289+47 25 50.12         20.54GVEG208I52
     K24G06A KC2024 04 14.35823211 09 37.404+47 25 34.46         20.95GVEG208I52
     K24G06A KC2024 04 14.35912411 09 37.364+47 25 19.20         20.95GVEG208I52
     K24G06A KC2024 04 14.84478311 12 07.03 +45 01 53.6          20.4 GVEG208L01
     K24G06A pC2024 04 14.84773911 12 07.08 +45 00 56.5          20.5 GVEG208L01
     K24G06A pC2024 04 14.85198411 12 07.14 +44 59 33.8          20.5 GVEG208L01
     K24G06A KB2024 04 14.93281611 12 18.58 +44 32 32.4          20.4 GXEG208I93
     K24G06A KB2024 04 14.94731411 12 19.14 +44 27 30.2          21.0 GXEG208I93
Observer details:
734 Farpoint Observatory, Eskridge.  Observers G. Hug, D. Cromer, D. Goodin,
    R. Valentine.  Measurer G. Hug.  0.7m reflector + CCD.
G96 Mt. Lemmon Survey.  Observer K. W. Wierzchos.  Measurers B. Gray, D.
    Rankin, F. C. Shelly, T. Beuden, V. F. Carvajal, D. Fay, J. B. Fazekas, D.
    C. Fuls, A. R. Gibbs, A. D. Grauer, H. Groeller, J. K. Hogan, R. A.
    Kowalski, S. M. Larson, G. J. Leonard, R. L. Seaman, K. W. Wierzchos.
    1.5-m reflector + 10K CCD.
H01 Magdalena Ridge Observatory, Socorro.  Observers W. H. Ryan, E. V. Ryan.
    Measurer W. H. Ryan.  2.4-m f/8.9 Ritchey-Chretien + CCD.
I52 Steward Observatory, Mt. Lemmon Station.  Observer D. Rankin.  Measurers
    T. Beuden, V. F. Carvajal, D. Fay, J. B. Fazekas, D. C. Fuls, A. R. Gibbs,
    A. D. Grauer, H. Groeller, J. K. Hogan, R. A. Kowalski, S. M. Larson, G.
    J. Leonard, D. Rankin, R. L. Seaman, F. C. Shelly, K. W. Wierzchos.  1.0-m
    prime focus + CCD.
I93 St Pardon de Conques.  Observer F. Losse.  0.40-m f/3.7 reflector + CCD.
L01 Visnjan Observatory, Tican.  Observer K. Korlevic.  1.0-m f/2.9 reflector
    + CCD.
Orbital elements:
2024 GA6                                                 Earth MOID = 0.0061 AU
Epoch 2024 Mar. 31.0 TT = JDT 2460400.5                 Veres                   
M 350.10307              (2000.0)            P               Q                  
n   0.52231467     Peri.  181.09883     -0.87522635     +0.47760711             
a   1.5270312      Node    27.84376     -0.44253782     -0.72666513             
e   0.3384571      Incl.    9.44159     -0.19529240     -0.49381094             
P   1.89           H   27.28          G   0.15           U   7                  
Residuals in seconds of arc
240413 G96  0.2-  0.1+    240414 H01  0.1+  0.2+    240414 I52  0.2+  0.3-
240413 G96 (0.2+  1.2+)   240414 H01  0.1+  0.0     240414 I52  0.7+  0.3-
240413 G96  0.3+  0.4-    240414 734  0.2+  0.4-    240414 I52  0.4-  0.0
240413 G96  0.3-  0.3+    240414 H01  0.0   0.1-    240414 L01  0.5+  0.3-
240414 G96  0.3+  0.6-    240414 734 (2.1+  0.2-)   240414 L01  0.1-  0.2+
240414 G96  0.4-  0.7+    240414 H01  0.1+  0.1+    240414 L01  1.1-  0.5+
240414 G96  0.3+  0.2+    240414 734  0.3-  0.6-    240414 I93  0.2+  1.0-
240414 G96  0.0   0.1+    240414 I52  0.1-  0.1-    240414 I93  0.1-  0.4-
Ephemeris:
2024 GA6                 a,e,i = 1.53, 0.34, 9                   q = 1.0102
Date    TT    R. A. (2000) Decl.     Delta      r    Elong.  Phase     V
2024 03 15    11 00 19.4 +62 49 01   0.1360  1.0669   118.9    54.7    25.1
...
2024 03 30    10 55 09.9 +62 52 27   0.07907 1.0294   110.8    65.1    24.1
...
2024 04 07    10 57 12.8 +60 09 54   0.04769 1.0172   108.5    68.9    23.1
...
2024 04 13    11 05 54.2 +52 08 32   0.02409 1.0119   111.9    66.9    21.6
2024 04 14    11 08 52.8 +48 54 37   0.02025 1.0114   114.0    64.9    21.1
2024 04 15    11 12 42.3 +44 09 44   0.01650 1.0109   117.4    61.8    20.6
...
2024 04 21    12 56 45.3 -74 00 38   0.01163 1.0103   117.3    62.2    19.8
...
2024 04 29    21 52 14.6 -76 35 40   0.04220 1.0146    99.2    78.4    23.2
...
2024 05 14    22 13 51.9 -71 48 01   0.09992 1.0391   103.8    70.8    24.8
M. P. C. Staff               (C) Copyright 2024 MPC           M.P.E.C. 2024-G208
    
    
More information about the Iaude
mailing list